Regional Weather Roundup
Issued by NWS New Orleans/Baton Rouge, LA

Home | Current Version | Previous Version | Text Only | Print | Product List | Glossary On
Versions: 1 2 3 4 5 6 7 8 9 10 11 12 13 14 15 16 17 18 19 20 21 22 23 24 25 26 27
000
ASUS44 KLIX 181312
RWRLIX
NEW ORLEANS REGIONAL WEATHER ROUNDUP
NATIONAL WEATHER SERVICE NEW ORLEANS LA
700 AM CST MON DEC 18 2017

NOTE: "FAIR" INDICATES FEW OR NO CLOUDS BELOW 12,000 FEET WITH NO
      SIGNIFICANT WEATHER AND/OR OBSTRUCTIONS TO VISIBILITY.
      SKY/WX - SKY CONDITION AND SIGNIFICANT WEATHER.
      TMP - AIR TEMPERATURE.     DP    - DEWPOINT TEMPERATURE.
      RH  - RELATIVE HUMIDITY.   PRES  - PRESSURE.
      HI  - HEAT INDEX.          WCI   - WIND CHILL INDEX.

*  THESE STATIONS ARE NOT NWS OR FAA STATIONS AND ARE NOT UNDER
   NWS QUALITY CONTROL.

LAZ038-040-048-061>063-065>067-069-181400-
SOUTHEAST LOUISIANA

CITY           SKY/WX    TMP DP  RH WIND       PRES   REMARKS
N.O. INTL ARPT CLOUDY    65  65 100 CALM      30.15R
N.O. LAKEFRONT FOG       60  60 100 E6        30.16S VSB 1/2
N.O. DOWNTOWN* CLOUDY    64  63  96 CALM      30.17R FOG
RESERVE*       CLOUDY    65  64  93 E6        30.14S
SLIDELL        LGT RAIN  65  63  93 CALM      30.15R
BATON ROUGE    CLOUDY    63  62  97 CALM      30.15R FOG
BOOTHVILLE     FOG       67  67 100 S5        30.17R VSB 1/4
BELLE CHASSE   CLOUDY    66  66 100 CALM      30.15R FOG
BOGALUSA*      LGT RAIN  64  62  91 MISG      30.17S
GALLIANO*      CLOUDY    70  67  92 S10       30.15R FOG
NEW ROADS*     CLOUDY    60  59  98 CALM      30.18R
GONZALES*      TSTM      64  64 100 N3        30.15R
HAMMOND*       RAIN      63  63 100 CALM      30.15S
HOUMA*         NOT AVBL
PORT FOURCHON* MOSUNNY   70  70 100 SW9       30.16R FOG

$$

MSZ070-080>082-181400-
SOUTHERN MISSISSIPPI

CITY           SKY/WX    TMP DP  RH WIND       PRES   REMARKS
MCCOMB         RAIN      63  61  93 CALM      30.18R FOG
GULFPORT       LGT RAIN  65  64  97 CALM      30.17R FOG
BILOXI         LGT RAIN  64  63  98 CALM      30.17R
PASCAGOULA     CLOUDY    65  63  93 N3        30.17S FOG
STENNIS ARPT*  PTCLDY    63  63 100 CALM      30.17

$$

COASTAL OBSERVATIONS
LAKE AND NEARSHORE STATIONS

STATION/POSITION TIME  TEMP    WIND        PRES    WAVE
                       AIR SEA DIR/SP/G            HT/PER
                 (UTC) (F)     (DEG/KT/KT) (MB)    (FT/S)
PASCAGOULA       1248   65      90/  5/  5 1020.6
WAVELAND YACHT   1248   63 54  320/  5/  6 1021.6
GRAND ISLE       1248   69 63  200/  6/  9 1021.2
SOUTHWEST PASS   1248   68 57  210/  9/ 11 1022.0
NEW CANAL        1248   61 55  140/  1/  3 1020.9
SHELL BEACH      1248   66 57  200/  4/  6 1021.0

OFFSHORE STATIONS

STATION/POSITION TIME  TEMP    WIND        PRES    WAVE
                       AIR SEA DIR/SP/G            HT/PER
                 (UTC) (F)     (DEG/KT/KT) (MB)    (FT/S)
64 S DAUPHIN ISL 1250   75 74  210/  8/ 10 1021.8    4/ 7

$$





USA.gov is the U.S. government's official web portal to all federal, state and local government web resources and services.